Tracking 17558 objects as of 14-February-2016
HD Live streaming from Space Station
objects crossing your sky now

ARIANE 44LP DEB

Track ARIANE 44LP DEB now!
10-day predictions


NORAD ID: 27662
Int'l Code: 1991-015N
Perigee: 435.3 km
Apogee: 24,068.6 km
Inclination: 5.8 °
Period: 421.5 minutes
Semi major axis: 18622 km
RCS: 0.2322 m2 (medium)
Launch date: March 2, 1991
Source: France (FR)
Launch site: FRENCH GUIANA (FRGUI)

Note: This is SATELLITE DEBRIS
Your satellite tracking list
Your tracking list is empty





NASA's NSSDC Master Catalog

Two Line Element Set (TLE):
1 27662U 91015N   16044.20617720  .00000205  00000-0  43037-3 0  9996
2 27662   5.8362 125.9318 6345209 105.8524 328.5028  3.4161386195771
Source of the keplerian elements: AFSPC

N2YO: 308